SCP
0 0 0 0 0 0 0 0 0 0 0 0 0 0 0 0 0 0 0 0 0 0 0 0 0 0 0 0 0 0 0 0 1 0 0 0 0 0 0 0 0 0 -0
0 0 0 0 0 0 0 0 0 0 0 0 0 0 0 0 0 0 0 0 0 0 0 0 0 0 0 0 0 0 0 0 1 0 0 0 0 0 0 0 0 0 0
0 0 0 0 0 0 0 0 0 0 0 0 0 0 0 0 0 0 0 0 0 0 0 0 0 0 0 0 0 0 0 0 0 0 0 0 0 0 0 -0 -0 -0 -0
0 0 0 0 0 0 0 0 0 0 0 0 0 0 0 0 0 0 0 0 0 0 0 0 0 0 0 0 0 0 0 0 0 0 0 0 0 0 0 0 -0 -0 0
0 0 0 0 0 0 0 0 0 0 0 0 0 0 0 0 0 0 0 0 0 0 0 0 0 0 0 0 0 0 0 0 0 0 0 0 0 0 0 0 0 -0 0
0 0 0 0 0 0 0 0 0 0 0 0 0 0 0 0 0 0 0 0 0 0 0 0 0 0 0 0 0 0 0 0 0 0 0 0 0 0 0 -0 -0 0 -0
0 0 0 0 0 0 0 0 0 0 0 0 0 0 0 0 0 0 0 0 0 0 0 0 0 0 0 0 0 0 0 0 -0 0 0 0 0 0 0 -0 -0 0 0
0 0 0 0 0 0 0 0 0 0 0 0 0 0 0 0 0 0 0 0 0 0 0 0 0 0 0 0 0 0 0 0 0 0 0 0 -0 0 0 0 -0 0 0
0 0 0 0 0 0 0 0 0 0 0 0 0 0 0 0 0 0 0 0 0 0 0 0 0 0 0 0 0 0 0 0 0 0 0 0 0 -0 0 0 -0 0 -0
0 0 0 0 0 0 0 0 0 0 0 0 0 0 0 0 0 0 0 0 0 0 0 0 0 0 0 0 0 0 0 0 0 0 0 0 -0 -0 0 0 0 -0 0
0 0 0 0 0 0 0 0 0 0 0 0 0 0 0 0 0 0 0 0 0 0 0 0 0 0 0 0 0 0 0 0 0 0 0 0 0 0 0 0 0 0 -0
0 0 0 0 0 0 0 0 0 0 0 0 0 0 0 0 0 0 0 0 0 0 0 0 0 0 0 0 0 0 0 0 0 0 0 0 -0 0 0 0 0 0 0
0 0 0 0 0 0 0 0 0 0 0 0 0 0 0 0 0 0 0 0 0 0 0 0 0 0 0 0 0 0 0 0 0 0 -0 -0 0 0 0 0 0 0 -0
0 0 0 0 0 0 0 0 0 0 0 0 0 0 0 0 0 0 0 0 0 0 0 0 0 0 0 0 0 0 0 0 0 -0 -0 -0 -0 0 0 0 0 0 -0
0 0 0 0 0 0 0 0 0 0 0 0 0 0 0 0 0 0 0 0 0 0 0 0 0 0 0 0 0 0 0 0 0 0 -0 -0 -0 0 0 0 0 0 -0
0 0 0 0 0 0 0 0 0 0 0 0 0 0 0 0 0 0 0 0 0 0 0 0 0 0 0 0 0 0 0 0 0 0 0 0 -0 0 0 0 0 0 0
0 0 0 0 0 0 0 0 0 0 0 0 0 0 0 0 0 0 0 0 0 0 0 0 0 0 0 0 0 0 0 0 0 0 0 0 -0 -0 -0 0 0 0 0
0 0 0 0 0 0 0 0 0 0 0 0 0 0 0 0 0 0 0 0 0 0 0 0 0 0 0 0 0 0 0 0 0 0 0 0 -0 -0 -0 -0 0 0 0
0 0 0 0 0 0 0 0 0 0 0 0 0 0 0 0 0 0 0 0 0 0 0 0 0 -0 0 0 0 0 0 0 0 0 0 0 0 -0 -0 -0 -0 0 0
0 0 0 0 0 0 0 0 0 0 0 0 0 0 0 0 0 0 0 0 0 0 0 0 0 -0 -0 0 0 0 0 -0 0 0 0 0 0 -0 -0 -0 -0 -0 0
0 0 0 0 0 0 0 0 0 0 0 0 0 0 0 0 0 0 0 0 0 0 0 0 0 -0 0 0 0 0 -0 -0 0 -0 0 0 0 0 0 0 0 0 0
0 0 0 0 0 0 0 0 0 0 0 0 0 0 0 0 0 0 0 0 0 0 0 0 -0 -0 -0 0 0 0 -0 -0 -0 -0 -0 -0 0 0 0 0 0 0 0
0 0 0 0 0 0 0 0 0 0 0 0 0 0 0 0 0 0 0 0 0 0 0 0 -0 0 0 0 0 0 -0 -0 -0 -0 -0 -0 -0 0 0 0 0 0 0
0 0 0 0 0 0 0 0 0 0 0 0 0 0 0 0 0 0 0 0 0 0 0 0 0 -0 0 -0 0 0 0 -0 -0 -0 -0 0 -0 0 0 0 0 0 0
0 0 0 0 0 0 0 0 0 0 0 0 0 0 0 0 0 0 0 0 0 0 0 0 0 0 0 -0 -0 -0 -0 -0 -0 -0 0 -0 -0 0 0 0 0 0 0
0 0 0 0 0 0 0 0 0 0 0 0 0 0 0 0 0 0 0 0 0 0 0 0 0 0 -0 -0 -0 -0 -0 -0 -0 -0 -0 0 -0 0 0 0 0 0 0
Wind_Speed_500mb
87 93 92 89 81 74 64 55 47 42 42 46 49 51 51 52 52 55 57 62 67 71 71 76 84 84 85 84 84 88 91 89 95 105 125 112 103 102 98 98 106 104 114
88 95 95 88 81 72 63 53 45 41 44 48 47 48 47 49 52 56 62 64 70 73 74 78 85 82 86 88 85 88 91 92 91 99 117 96 107 106 105 120 97 97 105
91 95 93 90 82 72 62 51 44 43 44 46 44 44 46 50 54 57 64 68 71 72 74 76 82 79 83 83 83 87 87 87 85 92 108 94 106 122 116 104 100 107 100
94 97 93 93 81 69 58 49 44 45 45 41 40 42 48 53 56 59 64 68 71 74 73 76 79 76 82 85 87 88 87 85 82 86 93 99 97 103 93 96 95 89 101
97 96 95 90 78 69 56 50 48 46 40 36 37 43 49 53 54 58 65 68 71 76 78 75 72 74 73 76 84 91 88 86 84 82 84 86 88 88 78 78 83 101 77
97 92 95 90 78 66 59 53 48 42 35 32 38 43 48 50 51 57 65 68 72 73 77 74 73 73 75 73 79 83 86 92 94 91 94 94 99 98 97 94 88 91 51
92 89 97 86 76 68 60 52 45 37 32 33 38 44 47 47 49 55 65 71 70 69 72 76 77 76 80 86 82 80 84 86 90 92 99 99 97 99 95 99 94 90 86
88 89 93 87 76 67 58 49 41 35 32 32 37 43 45 45 50 56 67 66 70 77 79 82 85 92 87 83 89 89 90 93 86 87 96 103 105 104 103 104 107 99 98
84 90 92 84 76 67 56 45 37 34 30 31 36 40 45 43 48 57 60 64 74 85 84 83 86 87 84 84 89 98 101 101 91 85 93 97 104 94 92 91 97 82 90
86 95 92 83 70 60 49 39 36 32 28 31 36 38 44 46 48 53 50 58 77 87 94 86 87 83 76 80 85 94 101 98 97 82 87 90 89 93 95 99 103 101 67
83 96 95 85 72 58 45 39 35 30 29 30 34 35 38 43 46 45 41 53 69 85 97 100 92 79 82 91 85 88 105 97 89 90 96 97 93 96 89 89 99 98 92
92 99 92 81 67 53 46 40 34 28 25 28 32 33 32 36 41 42 43 49 59 74 87 87 92 91 89 77 80 74 69 65 80 87 87 86 83 88 84 82 89 86 80
102 100 91 74 62 54 46 40 31 24 23 25 28 30 32 36 39 43 45 52 60 68 69 74 85 71 73 65 65 63 53 42 49 70 75 83 87 82 86 74 70 91 90
104 93 84 73 64 52 46 36 27 23 21 21 23 26 31 35 40 49 56 64 70 76 71 85 73 63 62 61 65 63 55 50 53 62 65 63 70 78 78 70 70 78 64
102 98 87 75 62 53 41 33 25 21 17 16 17 22 28 32 38 43 48 57 65 65 71 77 81 83 77 77 75 70 72 65 58 55 59 67 61 69 73 72 72 70 71
107 98 84 70 61 52 46 35 27 19 12 11 14 17 21 24 30 37 43 50 54 56 68 78 80 79 79 77 85 80 81 75 75 60 62 57 56 48 55 75 67 70 73
107 95 77 69 61 56 46 38 28 20 12 6 6 12 19 24 26 32 39 45 52 60 72 77 78 79 80 80 87 81 90 85 84 66 72 69 59 59 67 47 74 73 76
104 85 77 67 62 55 45 37 31 23 15 7 1 9 16 19 24 31 40 45 55 63 71 77 81 81 83 80 93 85 96 94 92 80 80 75 60 56 58 69 54 60 68
92 85 74 66 56 50 44 38 34 27 20 12 6 7 9 14 21 28 34 47 58 65 71 76 81 83 85 85 92 87 96 96 93 85 89 77 64 55 57 64 75 79 61
84 79 72 69 62 54 47 42 35 29 22 16 12 8 4 11 16 25 36 44 53 60 66 73 79 86 89 90 94 88 101 103 92 95 90 83 68 57 56 58 64 70 72
93 80 72 65 58 51 44 39 33 27 21 17 13 6 7 12 18 27 34 42 49 56 62 69 74 83 94 98 99 94 107 108 101 100 96 89 75 66 52 53 58 62 71
88 81 73 64 56 51 46 40 34 28 22 17 12 6 7 8 17 23 30 37 41 48 54 63 71 76 86 97 95 95 111 115 117 112 102 91 80 67 52 48 46 47 58
88 78 71 62 55 50 46 40 35 29 22 18 13 7 2 7 15 21 28 35 40 45 50 59 67 74 77 88 97 91 108 115 122 111 105 95 86 74 55 41 33 30 57
76 73 68 62 55 50 45 40 34 28 23 18 12 7 1 8 14 21 27 33 37 41 48 55 60 68 74 80 89 96 108 114 124 116 107 98 90 76 51 32 23 25 48
72 66 60 55 51 51 45 38 32 29 24 18 12 6 1 6 12 19 27 32 38 43 47 53 56 62 70 75 81 89 103 112 121 118 117 109 97 83 60 39 16 21 39
62 57 52 49 50 46 39 35 33 29 24 18 12 6 2 7 13 20 26 32 36 41 45 50 57 57 63 73 78 87 91 107 115 120 120 120 113 101 78 58 35 13 24
Wind_Direction_500mb
234 233 230 226 224 226 230 234 242 255 268 279 286 292 298 302 303 305 307 303 300 298 296 294 291 286 277 273 272 270 269 265 265 266 270 279 275 280 281 282 268 265 264
233 231 228 223 222 224 227 232 242 257 268 277 285 293 300 303 307 309 307 305 302 300 300 295 293 289 283 278 274 271 270 268 268 271 273 275 279 280 277 272 275 279 271
230 230 225 219 219 221 225 232 243 255 266 274 285 296 302 306 306 308 307 306 304 303 301 297 297 294 289 284 279 277 274 272 270 269 274 275 276 275 281 280 274 274 259
230 229 224 217 217 218 222 231 244 254 264 276 291 301 304 305 308 311 310 308 307 305 303 299 298 293 289 289 284 278 276 274 273 270 273 276 278 284 285 282 279 270 266
229 227 220 215 213 214 219 230 241 252 263 279 296 300 302 305 309 312 310 310 309 307 304 302 297 293 288 284 281 278 274 271 270 269 271 274 276 282 281 285 274 272 260
229 226 216 211 210 213 219 229 239 250 264 284 294 300 301 302 308 311 314 312 309 307 309 305 299 299 294 290 282 275 271 270 266 264 267 267 270 275 282 284 287 280 280
227 222 214 209 209 213 219 228 237 249 266 283 293 297 298 303 308 313 314 310 309 310 312 313 310 300 296 296 294 282 274 268 265 267 268 267 271 274 278 280 283 286 291
226 221 210 208 208 215 221 228 237 250 266 280 291 295 298 307 309 312 311 313 318 323 318 312 304 302 297 296 293 288 286 279 275 271 267 268 267 272 271 269 272 276 281
223 213 207 208 209 214 220 228 237 252 266 283 291 295 299 305 308 312 320 325 325 322 316 311 308 306 303 301 293 289 285 280 280 270 267 269 267 262 267 269 267 263 270
220 208 203 206 211 217 220 228 240 253 268 284 291 297 302 309 312 324 327 326 324 319 320 315 310 308 307 304 298 293 287 282 278 277 274 277 268 266 264 255 257 254 251
214 203 202 204 208 214 221 230 240 252 269 284 290 300 303 311 322 328 327 326 321 320 315 317 315 316 310 306 304 293 287 280 279 273 274 277 276 265 269 262 249 247 252
205 198 201 201 205 213 221 231 236 249 268 282 295 303 310 320 330 334 327 323 323 318 318 320 322 315 313 310 309 312 302 277 280 274 272 272 275 263 268 261 252 255 253
197 195 196 199 207 213 220 223 232 245 266 284 296 307 321 330 336 343 333 327 325 325 326 324 321 320 321 314 319 318 309 297 295 284 273 272 270 270 270 262 260 250 254
194 191 193 201 206 211 216 221 230 245 261 279 297 316 330 337 340 349 334 332 331 328 330 333 346 338 334 330 329 333 328 317 303 290 279 276 279 272 256 266 255 255 248
191 193 196 199 202 206 210 213 219 237 256 285 306 330 335 337 346 332 331 334 332 329 330 343 354 354 348 338 340 336 336 332 324 310 296 280 274 273 260 260 252 252 248
190 190 192 196 199 206 202 201 210 219 246 285 319 332 336 338 332 329 337 340 338 339 347 354 354 349 342 336 339 336 336 332 329 319 313 302 287 274 263 259 250 246 245
193 190 194 197 199 199 194 195 194 195 202 250 314 335 350 346 339 341 343 347 352 355 3 359 357 351 341 337 338 337 333 331 332 328 317 311 297 278 261 275 255 245 237
190 192 197 198 195 189 188 186 185 188 184 188 349 5 359 356 356 353 352 350 357 6 6 2 0 357 347 338 344 338 335 334 334 330 320 317 306 291 274 259 263 245 242
188 187 189 192 187 188 183 180 182 177 172 160 118 57 16 8 8 1 3 5 6 7 5 4 4 3 354 347 344 345 337 335 335 330 324 320 315 300 279 265 258 250 253
181 188 189 186 185 181 180 180 176 171 164 150 125 93 56 32 13 12 13 11 9 6 3 4 6 8 2 355 350 347 341 340 340 334 329 328 325 313 294 279 266 258 249
182 184 183 182 180 179 177 177 173 169 158 142 122 115 75 33 12 13 8 7 5 2 1 3 7 8 9 5 359 350 345 345 344 339 336 335 331 321 304 284 268 255 247
178 179 179 180 176 174 174 176 171 166 159 143 139 128 68 19 16 9 5 3 1 359 1 1 3 6 10 8 3 352 350 350 347 347 343 339 336 330 313 290 270 253 241
178 176 175 173 174 172 174 175 170 164 158 154 163 148 132 18 11 3 5 1 358 356 357 0 3 4 8 11 10 359 354 355 352 357 352 348 346 342 329 306 282 242 233
175 175 172 170 169 172 176 177 170 165 165 170 168 174 105 18 356 356 0 356 351 356 357 358 1 4 3 9 10 6 359 360 1 6 4 359 358 354 344 324 299 226 223
174 172 171 168 170 176 176 174 171 171 175 180 187 199 56 1 350 350 352 348 347 350 355 357 358 -0 2 6 11 9 0 3 3 10 14 11 11 9 6 1 341 195 214
170 170 168 169 177 177 175 178 179 179 180 186 199 214 310 334 345 352 346 340 343 347 350 354 357 357 1 7 8 15 5 2 0 12 17 19 20 20 17 17 24 151 182
Wind_Speed_850mb
87 93 92 89 81 74 64 55 47 42 42 46 49 51 51 52 52 55 57 62 67 71 71 76 84 84 85 84 84 88 91 89 95 105 125 112 103 102 98 98 106 104 114
88 95 95 88 81 72 63 53 45 41 44 48 47 48 47 49 52 56 62 64 70 73 74 78 85 82 86 88 85 88 91 92 91 99 117 96 107 106 105 120 97 97 105
91 95 93 90 82 72 62 51 44 43 44 46 44 44 46 50 54 57 64 68 71 72 74 76 82 79 83 83 83 87 87 87 85 92 108 94 106 122 116 104 100 107 100
94 97 93 93 81 69 58 49 44 45 45 41 40 42 48 53 56 59 64 68 71 74 73 76 79 76 82 85 87 88 87 85 82 86 93 99 97 103 93 96 95 89 101
97 96 95 90 78 69 56 50 48 46 40 36 37 43 49 53 54 58 65 68 71 76 78 75 72 74 73 76 84 91 88 86 84 82 84 86 88 88 78 78 83 101 77
97 92 95 90 78 66 59 53 48 42 35 32 38 43 48 50 51 57 65 68 72 73 77 74 73 73 75 73 79 83 86 92 94 91 94 94 99 98 97 94 88 91 51
92 89 97 86 76 68 60 52 45 37 32 33 38 44 47 47 49 55 65 71 70 69 72 76 77 76 80 86 82 80 84 86 90 92 99 99 97 99 95 99 94 90 86
88 89 93 87 76 67 58 49 41 35 32 32 37 43 45 45 50 56 67 66 70 77 79 82 85 92 87 83 89 89 90 93 86 87 96 103 105 104 103 104 107 99 98
84 90 92 84 76 67 56 45 37 34 30 31 36 40 45 43 48 57 60 64 74 85 84 83 86 87 84 84 89 98 101 101 91 85 93 97 104 94 92 91 97 82 90
86 95 92 83 70 60 49 39 36 32 28 31 36 38 44 46 48 53 50 58 77 87 94 86 87 83 76 80 85 94 101 98 97 82 87 90 89 93 95 99 103 101 67
83 96 95 85 72 58 45 39 35 30 29 30 34 35 38 43 46 45 41 53 69 85 97 100 92 79 82 91 85 88 105 97 89 90 96 97 93 96 89 89 99 98 92
92 99 92 81 67 53 46 40 34 28 25 28 32 33 32 36 41 42 43 49 59 74 87 87 92 91 89 77 80 74 69 65 80 87 87 86 83 88 84 82 89 86 80
102 100 91 74 62 54 46 40 31 24 23 25 28 30 32 36 39 43 45 52 60 68 69 74 85 71 73 65 65 63 53 42 49 70 75 83 87 82 86 74 70 91 90
104 93 84 73 64 52 46 36 27 23 21 21 23 26 31 35 40 49 56 64 70 76 71 85 73 63 62 61 65 63 55 50 53 62 65 63 70 78 78 70 70 78 64
102 98 87 75 62 53 41 33 25 21 17 16 17 22 28 32 38 43 48 57 65 65 71 77 81 83 77 77 75 70 72 65 58 55 59 67 61 69 73 72 72 70 71
107 98 84 70 61 52 46 35 27 19 12 11 14 17 21 24 30 37 43 50 54 56 68 78 80 79 79 77 85 80 81 75 75 60 62 57 56 48 55 75 67 70 73
107 95 77 69 61 56 46 38 28 20 12 6 6 12 19 24 26 32 39 45 52 60 72 77 78 79 80 80 87 81 90 85 84 66 72 69 59 59 67 47 74 73 76
104 85 77 67 62 55 45 37 31 23 15 7 1 9 16 19 24 31 40 45 55 63 71 77 81 81 83 80 93 85 96 94 92 80 80 75 60 56 58 69 54 60 68
92 85 74 66 56 50 44 38 34 27 20 12 6 7 9 14 21 28 34 47 58 65 71 76 81 83 85 85 92 87 96 96 93 85 89 77 64 55 57 64 75 79 61
84 79 72 69 62 54 47 42 35 29 22 16 12 8 4 11 16 25 36 44 53 60 66 73 79 86 89 90 94 88 101 103 92 95 90 83 68 57 56 58 64 70 72
93 80 72 65 58 51 44 39 33 27 21 17 13 6 7 12 18 27 34 42 49 56 62 69 74 83 94 98 99 94 107 108 101 100 96 89 75 66 52 53 58 62 71
88 81 73 64 56 51 46 40 34 28 22 17 12 6 7 8 17 23 30 37 41 48 54 63 71 76 86 97 95 95 111 115 117 112 102 91 80 67 52 48 46 47 58
88 78 71 62 55 50 46 40 35 29 22 18 13 7 2 7 15 21 28 35 40 45 50 59 67 74 77 88 97 91 108 115 122 111 105 95 86 74 55 41 33 30 57
76 73 68 62 55 50 45 40 34 28 23 18 12 7 1 8 14 21 27 33 37 41 48 55 60 68 74 80 89 96 108 114 124 116 107 98 90 76 51 32 23 25 48
72 66 60 55 51 51 45 38 32 29 24 18 12 6 1 6 12 19 27 32 38 43 47 53 56 62 70 75 81 89 103 112 121 118 117 109 97 83 60 39 16 21 39
62 57 52 49 50 46 39 35 33 29 24 18 12 6 2 7 13 20 26 32 36 41 45 50 57 57 63 73 78 87 91 107 115 120 120 120 113 101 78 58 35 13 24
Wind_Direction_850mb
234 233 230 226 224 226 230 234 242 255 268 279 286 292 298 302 303 305 307 303 300 298 296 294 291 286 277 273 272 270 269 265 265 266 270 279 275 280 281 282 268 265 264
233 231 228 223 222 224 227 232 242 257 268 277 285 293 300 303 307 309 307 305 302 300 300 295 293 289 283 278 274 271 270 268 268 271 273 275 279 280 277 272 275 279 271
230 230 225 219 219 221 225 232 243 255 266 274 285 296 302 306 306 308 307 306 304 303 301 297 297 294 289 284 279 277 274 272 270 269 274 275 276 275 281 280 274 274 259
230 229 224 217 217 218 222 231 244 254 264 276 291 301 304 305 308 311 310 308 307 305 303 299 298 293 289 289 284 278 276 274 273 270 273 276 278 284 285 282 279 270 266
229 227 220 215 213 214 219 230 241 252 263 279 296 300 302 305 309 312 310 310 309 307 304 302 297 293 288 284 281 278 274 271 270 269 271 274 276 282 281 285 274 272 260
229 226 216 211 210 213 219 229 239 250 264 284 294 300 301 302 308 311 314 312 309 307 309 305 299 299 294 290 282 275 271 270 266 264 267 267 270 275 282 284 287 280 280
227 222 214 209 209 213 219 228 237 249 266 283 293 297 298 303 308 313 314 310 309 310 312 313 310 300 296 296 294 282 274 268 265 267 268 267 271 274 278 280 283 286 291
226 221 210 208 208 215 221 228 237 250 266 280 291 295 298 307 309 312 311 313 318 323 318 312 304 302 297 296 293 288 286 279 275 271 267 268 267 272 271 269 272 276 281
223 213 207 208 209 214 220 228 237 252 266 283 291 295 299 305 308 312 320 325 325 322 316 311 308 306 303 301 293 289 285 280 280 270 267 269 267 262 267 269 267 263 270
220 208 203 206 211 217 220 228 240 253 268 284 291 297 302 309 312 324 327 326 324 319 320 315 310 308 307 304 298 293 287 282 278 277 274 277 268 266 264 255 257 254 251
214 203 202 204 208 214 221 230 240 252 269 284 290 300 303 311 322 328 327 326 321 320 315 317 315 316 310 306 304 293 287 280 279 273 274 277 276 265 269 262 249 247 252
205 198 201 201 205 213 221 231 236 249 268 282 295 303 310 320 330 334 327 323 323 318 318 320 322 315 313 310 309 312 302 277 280 274 272 272 275 263 268 261 252 255 253
197 195 196 199 207 213 220 223 232 245 266 284 296 307 321 330 336 343 333 327 325 325 326 324 321 320 321 314 319 318 309 297 295 284 273 272 270 270 270 262 260 250 254
194 191 193 201 206 211 216 221 230 245 261 279 297 316 330 337 340 349 334 332 331 328 330 333 346 338 334 330 329 333 328 317 303 290 279 276 279 272 256 266 255 255 248
191 193 196 199 202 206 210 213 219 237 256 285 306 330 335 337 346 332 331 334 332 329 330 343 354 354 348 338 340 336 336 332 324 310 296 280 274 273 260 260 252 252 248
190 190 192 196 199 206 202 201 210 219 246 285 319 332 336 338 332 329 337 340 338 339 347 354 354 349 342 336 339 336 336 332 329 319 313 302 287 274 263 259 250 246 245
193 190 194 197 199 199 194 195 194 195 202 250 314 335 350 346 339 341 343 347 352 355 3 359 357 351 341 337 338 337 333 331 332 328 317 311 297 278 261 275 255 245 237
190 192 197 198 195 189 188 186 185 188 184 188 349 5 359 356 356 353 352 350 357 6 6 2 0 357 347 338 344 338 335 334 334 330 320 317 306 291 274 259 263 245 242
188 187 189 192 187 188 183 180 182 177 172 160 118 57 16 8 8 1 3 5 6 7 5 4 4 3 354 347 344 345 337 335 335 330 324 320 315 300 279 265 258 250 253
181 188 189 186 185 181 180 180 176 171 164 150 125 93 56 32 13 12 13 11 9 6 3 4 6 8 2 355 350 347 341 340 340 334 329 328 325 313 294 279 266 258 249
182 184 183 182 180 179 177 177 173 169 158 142 122 115 75 33 12 13 8 7 5 2 1 3 7 8 9 5 359 350 345 345 344 339 336 335 331 321 304 284 268 255 247
178 179 179 180 176 174 174 176 171 166 159 143 139 128 68 19 16 9 5 3 1 359 1 1 3 6 10 8 3 352 350 350 347 347 343 339 336 330 313 290 270 253 241
178 176 175 173 174 172 174 175 170 164 158 154 163 148 132 18 11 3 5 1 358 356 357 0 3 4 8 11 10 359 354 355 352 357 352 348 346 342 329 306 282 242 233
175 175 172 170 169 172 176 177 170 165 165 170 168 174 105 18 356 356 0 356 351 356 357 358 1 4 3 9 10 6 359 360 1 6 4 359 358 354 344 324 299 226 223
174 172 171 168 170 176 176 174 171 171 175 180 187 199 56 1 350 350 352 348 347 350 355 357 358 -0 2 6 11 9 0 3 3 10 14 11 11 9 6 1 341 195 214
170 170 168 169 177 177 175 178 179 179 180 186 199 214 310 334 345 352 346 340 343 347 350 354 357 357 1 7 8 15 5 2 0 12 17 19 20 20 17 17 24 151 182